Location: Keppel Henge
(44.7900°N, 80.9447°W)
Time: 11:56:29
(UTC-05:00)

Tiangong 2 - Pass Details

Date: 11 October 2017
Orbit: 386 x 390 km, 42.8° (Epoch: 13 December)

Event Time Altitude Azimuth Distance (km) Brightness Sun altitude
Exits shadow 06:14:10 25° 219° (SW) 834 2.4 -15.0°
Maximum altitude 06:15:34 41° 165° (SSE) 584 2.0 -14.8°
Drops below altitude 10° 06:18:37 10° 93° (E) 1,425 5.3 -14.2°
Sets 06:20:46 0° 86° (E) 2,283 7.0 -13.9°
